Year,Month,Day,Hour,Minute,Value (Times are PST for temperature in C)
2016,06,28,00,00,16.20
2016,06,28,00,01,16.20
2016,06,28,00,02,16.20
2016,06,28,00,03,16.10
2016,06,28,00,04,16.10
2016,06,28,00,05,16.10
2016,06,28,00,06,16.10
2016,06,28,00,07,16.10
2016,06,28,00,08,16.10
2016,06,28,00,09,16.00
2016,06,28,00,10,16.00
2016,06,28,00,11,16.00
2016,06,28,00,12,16.00
2016,06,28,00,13,16.00
2016,06,28,00,14,16.00
2016,06,28,00,15,16.00
2016,06,28,00,16,15.90
2016,06,28,00,17,15.90
2016,06,28,00,18,15.90
2016,06,28,00,19,15.90
2016,06,28,00,20,15.90
2016,06,28,00,21,15.90
2016,06,28,00,22,15.90
2016,06,28,00,23,15.90
2016,06,28,00,24,15.90
2016,06,28,00,25,15.90
2016,06,28,00,26,15.90
2016,06,28,00,27,15.90
2016,06,28,00,28,15.90
2016,06,28,00,29,15.90
2016,06,28,00,30,16.00
2016,06,28,00,31,16.00
2016,06,28,00,32,16.00
2016,06,28,00,33,16.10
2016,06,28,00,34,16.10
2016,06,28,00,35,16.10
2016,06,28,00,36,16.10
2016,06,28,00,37,16.20
2016,06,28,00,38,16.20
2016,06,28,00,39,16.30
2016,06,28,00,40,16.30
2016,06,28,00,41,16.30
2016,06,28,00,42,16.40
2016,06,28,00,43,16.50
2016,06,28,00,44,16.50
2016,06,28,00,45,16.60
2016,06,28,00,46,16.70
2016,06,28,00,47,16.80
2016,06,28,00,48,16.80
2016,06,28,00,49,16.80
2016,06,28,00,50,16.90
2016,06,28,00,51,16.90
2016,06,28,00,52,16.90
2016,06,28,00,53,16.90
2016,06,28,00,54,17.00
2016,06,28,00,55,17.00
2016,06,28,00,56,17.00
2016,06,28,00,57,17.00
2016,06,28,00,58,17.00
2016,06,28,00,59,17.00
2016,06,28,01,00,17.00
2016,06,28,01,01,17.00
2016,06,28,01,02,17.00
2016,06,28,01,03,17.00
2016,06,28,01,04,17.00
2016,06,28,01,05,17.00
2016,06,28,01,06,16.90
2016,06,28,01,07,16.90
2016,06,28,01,08,16.90
2016,06,28,01,09,16.90
2016,06,28,01,10,16.90
2016,06,28,01,11,16.90
2016,06,28,01,12,16.90
2016,06,28,01,13,16.90
2016,06,28,01,14,16.90
2016,06,28,01,15,16.80
2016,06,28,01,16,16.80
2016,06,28,01,17,16.80
2016,06,28,01,18,16.80
2016,06,28,01,19,16.80
2016,06,28,01,20,16.80
2016,06,28,01,21,16.70
2016,06,28,01,22,16.70
2016,06,28,01,23,16.70
2016,06,28,01,24,16.70
2016,06,28,01,25,16.70
2016,06,28,01,26,16.60
2016,06,28,01,27,16.60
2016,06,28,01,28,16.60
2016,06,28,01,29,16.60
2016,06,28,01,30,16.50
2016,06,28,01,31,16.50
2016,06,28,01,32,16.50
2016,06,28,01,33,16.50
2016,06,28,01,34,16.40
2016,06,28,01,35,16.40
2016,06,28,01,36,16.40
2016,06,28,01,37,16.40
2016,06,28,01,38,16.40
2016,06,28,01,39,16.40
2016,06,28,01,40,16.40
2016,06,28,01,41,16.40
2016,06,28,01,42,16.40
2016,06,28,01,43,16.40
2016,06,28,01,44,16.40
2016,06,28,01,45,16.40
2016,06,28,01,46,16.30
2016,06,28,01,47,16.30
2016,06,28,01,48,16.30
2016,06,28,01,49,16.30
2016,06,28,01,50,16.30
2016,06,28,01,51,16.30
2016,06,28,01,52,16.30
2016,06,28,01,53,16.20
2016,06,28,01,54,16.20
2016,06,28,01,55,16.20
2016,06,28,01,56,16.20
2016,06,28,01,57,16.20
2016,06,28,01,58,16.20
2016,06,28,01,59,16.20
2016,06,28,02,00,16.20
2016,06,28,02,01,16.20
2016,06,28,02,02,16.20
2016,06,28,02,03,16.20
2016,06,28,02,04,16.20
2016,06,28,02,05,16.20
2016,06,28,02,06,16.20
2016,06,28,02,07,16.10
2016,06,28,02,08,16.10
2016,06,28,02,09,16.10
2016,06,28,02,10,16.10
2016,06,28,02,11,16.10
2016,06,28,02,12,16.00
2016,06,28,02,13,16.00
2016,06,28,02,14,16.00
2016,06,28,02,15,16.00
2016,06,28,02,16,15.90
2016,06,28,02,17,15.90
2016,06,28,02,18,15.90
2016,06,28,02,19,15.90
2016,06,28,02,20,15.90
2016,06,28,02,21,15.90
2016,06,28,02,22,15.80
2016,06,28,02,23,15.80
2016,06,28,02,24,15.80
2016,06,28,02,25,15.80
2016,06,28,02,26,15.80
2016,06,28,02,27,15.80
2016,06,28,02,28,15.80
2016,06,28,02,29,15.80
2016,06,28,02,30,15.70
2016,06,28,02,31,15.70
2016,06,28,02,32,15.70
2016,06,28,02,33,15.70
2016,06,28,02,34,15.70
2016,06,28,02,35,15.70
2016,06,28,02,36,15.60
2016,06,28,02,37,15.60
2016,06,28,02,38,15.60
2016,06,28,02,39,15.60
2016,06,28,02,40,15.60
2016,06,28,02,41,15.60
2016,06,28,02,42,15.60
2016,06,28,02,43,15.60
2016,06,28,02,44,15.50
2016,06,28,02,45,15.50
2016,06,28,02,46,15.50
2016,06,28,02,47,15.50
2016,06,28,02,48,15.40
2016,06,28,02,49,15.40
2016,06,28,02,50,15.40
2016,06,28,02,51,15.40
2016,06,28,02,52,15.40
2016,06,28,02,53,15.40
2016,06,28,02,54,15.30
2016,06,28,02,55,15.30
2016,06,28,02,56,15.30
2016,06,28,02,57,15.30
2016,06,28,02,58,15.30
2016,06,28,02,59,15.30
2016,06,28,03,00,15.20
2016,06,28,03,01,15.20
2016,06,28,03,02,15.20
2016,06,28,03,03,15.20
2016,06,28,03,04,15.20
2016,06,28,03,05,15.20
2016,06,28,03,06,15.10
2016,06,28,03,07,15.10
2016,06,28,03,08,15.10
2016,06,28,03,09,15.10
2016,06,28,03,10,15.10
2016,06,28,03,11,15.10
2016,06,28,03,12,15.10
2016,06,28,03,13,15.10
2016,06,28,03,14,15.00
2016,06,28,03,15,15.00
2016,06,28,03,16,15.00
2016,06,28,03,17,15.00
2016,06,28,03,18,15.00
2016,06,28,03,19,15.00
2016,06,28,03,20,14.90
2016,06,28,03,21,14.90
2016,06,28,03,22,14.90
2016,06,28,03,23,14.90
2016,06,28,03,24,14.90
2016,06,28,03,25,14.80
2016,06,28,03,26,14.80
2016,06,28,03,27,14.80
2016,06,28,03,28,14.80
2016,06,28,03,29,14.80
2016,06,28,03,30,14.80
2016,06,28,03,31,14.80
2016,06,28,03,32,14.80
2016,06,28,03,33,14.80
2016,06,28,03,34,14.70
2016,06,28,03,35,14.70
2016,06,28,03,36,14.70
2016,06,28,03,37,14.70
2016,06,28,03,38,14.70
2016,06,28,03,39,14.70
2016,06,28,03,40,14.70
2016,06,28,03,41,14.70
2016,06,28,03,42,14.70
2016,06,28,03,43,14.70
2016,06,28,03,44,14.70
2016,06,28,03,45,14.70
2016,06,28,03,46,14.60
2016,06,28,03,47,14.60
2016,06,28,03,48,14.60
2016,06,28,03,49,14.60
2016,06,28,03,50,14.60
2016,06,28,03,51,14.60
2016,06,28,03,52,14.60
2016,06,28,03,53,14.60
2016,06,28,03,54,14.60
2016,06,28,03,55,14.60
2016,06,28,03,56,14.60
2016,06,28,03,57,14.60
2016,06,28,03,58,14.60
2016,06,28,03,59,14.60
2016,06,28,04,00,14.50
2016,06,28,04,01,14.50
2016,06,28,04,02,14.50
2016,06,28,04,03,14.50
2016,06,28,04,04,14.50
2016,06,28,04,05,14.50
2016,06,28,04,06,14.50
2016,06,28,04,07,14.50
2016,06,28,04,08,14.50
2016,06,28,04,09,14.50
2016,06,28,04,10,14.50
2016,06,28,04,11,14.50
2016,06,28,04,12,14.50
2016,06,28,04,13,14.50
2016,06,28,04,14,14.40
2016,06,28,04,15,14.40
2016,06,28,04,16,14.40
2016,06,28,04,17,14.40
2016,06,28,04,18,14.40
2016,06,28,04,19,14.40
2016,06,28,04,20,14.40
2016,06,28,04,21,14.40
2016,06,28,04,22,14.40
2016,06,28,04,23,14.40
2016,06,28,04,24,14.30
2016,06,28,04,25,14.30
2016,06,28,04,26,14.30
2016,06,28,04,27,14.30
2016,06,28,04,28,14.30
2016,06,28,04,29,14.30
2016,06,28,04,30,14.30
2016,06,28,04,31,14.30
2016,06,28,04,32,14.30
2016,06,28,04,33,14.30
2016,06,28,04,34,14.20
2016,06,28,04,35,14.20
2016,06,28,04,36,14.20
2016,06,28,04,37,14.20
2016,06,28,04,38,14.20
2016,06,28,04,39,14.20
2016,06,28,04,40,14.20
2016,06,28,04,41,14.20
2016,06,28,04,42,14.20
2016,06,28,04,43,14.20
2016,06,28,04,44,14.20
2016,06,28,04,45,14.20
2016,06,28,04,46,14.20
2016,06,28,04,47,14.20
2016,06,28,04,48,14.10
2016,06,28,04,49,14.10
2016,06,28,04,50,14.10
2016,06,28,04,51,14.10
2016,06,28,04,52,14.10
2016,06,28,04,53,14.10
2016,06,28,04,54,14.10
2016,06,28,04,55,14.10
2016,06,28,04,56,14.10
2016,06,28,04,57,14.10
2016,06,28,04,58,14.10
2016,06,28,04,59,14.10
2016,06,28,05,00,14.10
2016,06,28,05,01,14.00
2016,06,28,05,02,14.00
2016,06,28,05,03,14.00
2016,06,28,05,04,14.00
2016,06,28,05,05,14.00
2016,06,28,05,06,14.00
2016,06,28,05,07,14.00
2016,06,28,05,08,13.90
2016,06,28,05,09,14.00
2016,06,28,05,10,13.90
2016,06,28,05,11,13.90
2016,06,28,05,12,13.90
2016,06,28,05,13,13.90
2016,06,28,05,14,13.90
2016,06,28,05,15,13.90
2016,06,28,05,16,13.90
2016,06,28,05,17,13.90
2016,06,28,05,18,13.90
2016,06,28,05,19,13.90
2016,06,28,05,20,13.90
2016,06,28,05,21,13.90
2016,06,28,05,22,13.90
2016,06,28,05,23,13.90
2016,06,28,05,24,13.90
2016,06,28,05,25,13.90
2016,06,28,05,26,13.90
2016,06,28,05,27,13.90
2016,06,28,05,28,13.90
2016,06,28,05,29,13.90
2016,06,28,05,30,13.90
2016,06,28,05,31,13.80
2016,06,28,05,32,13.80
2016,06,28,05,33,13.80
2016,06,28,05,34,13.80
2016,06,28,05,35,13.80
2016,06,28,05,36,13.80
2016,06,28,05,37,13.80
2016,06,28,05,38,13.80
2016,06,28,05,39,13.80
2016,06,28,05,40,13.80
2016,06,28,05,41,13.80
2016,06,28,05,42,13.80
2016,06,28,05,43,13.80
2016,06,28,05,44,13.80
2016,06,28,05,45,13.90
2016,06,28,05,46,13.90
2016,06,28,05,47,13.90
2016,06,28,05,48,13.90
2016,06,28,05,49,13.90
2016,06,28,05,50,13.90
2016,06,28,05,51,13.90
2016,06,28,05,52,13.90
2016,06,28,05,53,13.90
2016,06,28,05,54,13.90
2016,06,28,05,55,13.90
2016,06,28,05,56,13.90
2016,06,28,05,57,13.90
2016,06,28,05,58,13.90
2016,06,28,05,59,14.00
2016,06,28,06,00,14.00
2016,06,28,06,01,14.00
2016,06,28,06,02,14.00
2016,06,28,06,03,14.00
2016,06,28,06,04,14.10
2016,06,28,06,05,14.10
2016,06,28,06,06,14.10
2016,06,28,06,07,14.10
2016,06,28,06,08,14.10
2016,06,28,06,09,14.10
2016,06,28,06,10,14.10
2016,06,28,06,11,14.20
2016,06,28,06,12,14.20
2016,06,28,06,13,14.20
2016,06,28,06,14,14.20
2016,06,28,06,15,14.20
2016,06,28,06,16,14.20
2016,06,28,06,17,14.20
2016,06,28,06,18,14.20
2016,06,28,06,19,14.30
2016,06,28,06,20,14.30
2016,06,28,06,21,14.30
2016,06,28,06,22,14.30
2016,06,28,06,23,14.30
2016,06,28,06,24,14.30
2016,06,28,06,25,14.30
2016,06,28,06,26,14.40
2016,06,28,06,27,14.40
2016,06,28,06,28,14.40
2016,06,28,06,29,14.40
2016,06,28,06,30,14.40
2016,06,28,06,31,14.50
2016,06,28,06,32,14.50
2016,06,28,06,33,14.50
2016,06,28,06,34,14.50
2016,06,28,06,35,14.60
2016,06,28,06,36,14.60
2016,06,28,06,37,14.60
2016,06,28,06,38,14.60
2016,06,28,06,39,14.60
2016,06,28,06,40,14.70
2016,06,28,06,41,14.70
2016,06,28,06,42,14.70
2016,06,28,06,43,14.70
2016,06,28,06,44,14.70
2016,06,28,06,45,14.70
2016,06,28,06,46,14.70
2016,06,28,06,47,14.70
2016,06,28,06,48,14.80
2016,06,28,06,49,14.80
2016,06,28,06,50,14.80
2016,06,28,06,51,14.80
2016,06,28,06,52,14.80
2016,06,28,06,53,14.90
2016,06,28,06,54,14.90
2016,06,28,06,55,14.90
2016,06,28,06,56,14.90
2016,06,28,06,57,14.90
2016,06,28,06,58,15.00
2016,06,28,06,59,15.00
2016,06,28,07,00,15.00
2016,06,28,07,01,15.00
2016,06,28,07,02,15.00
2016,06,28,07,03,15.10
2016,06,28,07,04,15.10
2016,06,28,07,05,15.10
2016,06,28,07,06,15.10
2016,06,28,07,07,15.20
2016,06,28,07,08,15.20
2016,06,28,07,09,15.20
2016,06,28,07,10,15.30
2016,06,28,07,11,15.30
2016,06,28,07,12,15.30
2016,06,28,07,13,15.30
2016,06,28,07,14,15.40
2016,06,28,07,15,15.40
2016,06,28,07,16,15.40
2016,06,28,07,17,15.50
2016,06,28,07,18,15.50
2016,06,28,07,19,15.60
2016,06,28,07,20,15.60
2016,06,28,07,21,15.60
2016,06,28,07,22,15.60
2016,06,28,07,23,15.70
2016,06,28,07,24,15.70
2016,06,28,07,25,15.70
2016,06,28,07,26,15.70
2016,06,28,07,27,15.70
2016,06,28,07,28,15.80
2016,06,28,07,29,15.80
2016,06,28,07,30,15.80
2016,06,28,07,31,15.80
2016,06,28,07,32,15.90
2016,06,28,07,33,15.90
2016,06,28,07,34,16.00
2016,06,28,07,35,16.00
2016,06,28,07,36,16.00
2016,06,28,07,37,16.10
2016,06,28,07,38,16.10
2016,06,28,07,39,16.10
2016,06,28,07,40,16.10
2016,06,28,07,41,16.10
2016,06,28,07,42,16.10
2016,06,28,07,43,16.10
2016,06,28,07,44,16.10
2016,06,28,07,45,16.10
2016,06,28,07,46,16.10
2016,06,28,07,47,16.10
2016,06,28,07,48,16.10
2016,06,28,07,49,16.20
2016,06,28,07,50,16.20
2016,06,28,07,51,16.20
2016,06,28,07,52,16.20
2016,06,28,07,53,16.30
2016,06,28,07,54,16.30
2016,06,28,07,55,16.30
2016,06,28,07,56,16.30
2016,06,28,07,57,16.30
2016,06,28,07,58,16.30
2016,06,28,07,59,16.30
2016,06,28,08,00,16.30
2016,06,28,08,01,16.40
2016,06,28,08,02,16.40
2016,06,28,08,03,16.40
2016,06,28,08,04,16.40
2016,06,28,08,05,16.40
2016,06,28,08,06,16.50
2016,06,28,08,07,16.50
2016,06,28,08,08,16.60
2016,06,28,08,09,16.60
2016,06,28,08,10,16.60
2016,06,28,08,11,16.60
2016,06,28,08,12,16.70
2016,06,28,08,13,16.70
2016,06,28,08,14,16.70
2016,06,28,08,15,16.70
2016,06,28,08,16,16.80
2016,06,28,08,17,16.80
2016,06,28,08,18,16.80
2016,06,28,08,19,16.80
2016,06,28,08,20,16.90
2016,06,28,08,21,16.90
2016,06,28,08,22,17.00
2016,06,28,08,23,17.10
2016,06,28,08,24,17.10
2016,06,28,08,25,17.10
2016,06,28,08,26,17.00
2016,06,28,08,27,16.90
2016,06,28,08,28,16.90
2016,06,28,08,29,16.80
2016,06,28,08,30,16.80
2016,06,28,08,31,16.80
2016,06,28,08,32,16.70
2016,06,28,08,33,16.70
2016,06,28,08,34,16.60
2016,06,28,08,35,16.60
2016,06,28,08,36,16.60
2016,06,28,08,37,16.60
2016,06,28,08,38,16.60
2016,06,28,08,39,16.60
2016,06,28,08,40,16.60
2016,06,28,08,41,16.50
2016,06,28,08,42,16.50
2016,06,28,08,43,16.40
2016,06,28,08,44,16.40
2016,06,28,08,45,16.40
2016,06,28,08,46,16.40
2016,06,28,08,47,16.50
2016,06,28,08,48,16.60
2016,06,28,08,49,16.60
2016,06,28,08,50,16.60
2016,06,28,08,51,16.60
2016,06,28,08,52,16.60
2016,06,28,08,53,16.60
2016,06,28,08,54,16.60
2016,06,28,08,55,16.60
2016,06,28,08,56,16.60
2016,06,28,08,57,16.70
2016,06,28,08,58,16.70
2016,06,28,08,59,16.70
2016,06,28,09,00,16.70
2016,06,28,09,01,16.70
2016,06,28,09,02,16.70
2016,06,28,09,03,16.70
2016,06,28,09,04,16.70
2016,06,28,09,05,16.70
2016,06,28,09,06,16.70
2016,06,28,09,07,16.70
2016,06,28,09,08,16.60
2016,06,28,09,09,16.60
2016,06,28,09,10,16.60
2016,06,28,09,11,16.60
2016,06,28,09,12,16.60
2016,06,28,09,13,16.70
2016,06,28,09,14,16.70
2016,06,28,09,15,16.70
2016,06,28,09,16,16.60
2016,06,28,09,17,16.70
2016,06,28,09,18,16.70
2016,06,28,09,19,16.70
2016,06,28,09,20,16.60
2016,06,28,09,21,16.70
2016,06,28,09,22,16.60
2016,06,28,09,23,16.70
2016,06,28,09,24,16.70
2016,06,28,09,25,16.70
2016,06,28,09,26,16.60
2016,06,28,09,27,16.60
2016,06,28,09,28,16.60
2016,06,28,09,29,16.60
2016,06,28,09,30,16.60
2016,06,28,09,31,16.60
2016,06,28,09,32,16.50
2016,06,28,09,33,16.50
2016,06,28,09,34,16.40
2016,06,28,09,35,16.40
2016,06,28,09,36,16.40
2016,06,28,09,37,16.50
2016,06,28,09,38,16.50
2016,06,28,09,39,16.50
2016,06,28,09,40,16.50
2016,06,28,09,41,16.60
2016,06,28,09,42,16.60
2016,06,28,09,43,16.60
2016,06,28,09,44,16.60
2016,06,28,09,45,16.60
2016,06,28,09,46,16.70
2016,06,28,09,47,16.70
2016,06,28,09,48,16.80
2016,06,28,09,49,16.80
2016,06,28,09,50,16.80
2016,06,28,09,51,16.90
2016,06,28,09,52,16.90
2016,06,28,09,53,16.90
2016,06,28,09,54,16.80
2016,06,28,09,55,16.90
2016,06,28,09,56,16.90
2016,06,28,09,57,16.90
2016,06,28,09,58,16.90
2016,06,28,09,59,17.00
2016,06,28,10,00,17.00
2016,06,28,10,01,17.00
2016,06,28,10,02,17.10
2016,06,28,10,03,17.20
2016,06,28,10,04,17.20
2016,06,28,10,05,17.20
2016,06,28,10,06,17.20
2016,06,28,10,07,17.10
2016,06,28,10,08,17.10
2016,06,28,10,09,17.10
2016,06,28,10,10,17.10
2016,06,28,10,11,17.10
2016,06,28,10,12,17.20
2016,06,28,10,13,17.20
2016,06,28,10,14,17.20
2016,06,28,10,15,17.30
2016,06,28,10,16,17.30
2016,06,28,10,17,17.40
2016,06,28,10,18,17.50
2016,06,28,10,19,17.50
2016,06,28,10,20,17.60
2016,06,28,10,21,17.60
2016,06,28,10,22,17.70
2016,06,28,10,23,17.70
2016,06,28,10,24,17.70
2016,06,28,10,25,17.70
2016,06,28,10,26,17.70
2016,06,28,10,27,17.70
2016,06,28,10,28,17.80
2016,06,28,10,29,17.80
2016,06,28,10,30,17.70
2016,06,28,10,31,17.60
2016,06,28,10,32,17.60
2016,06,28,10,33,17.60
2016,06,28,10,34,17.50
2016,06,28,10,35,17.50
2016,06,28,10,36,17.50
2016,06,28,10,37,17.50
2016,06,28,10,38,17.50
2016,06,28,10,39,17.50
2016,06,28,10,40,17.40
2016,06,28,10,41,17.40
2016,06,28,10,42,17.50
2016,06,28,10,43,17.50
2016,06,28,10,44,17.60
2016,06,28,10,45,17.60
2016,06,28,10,46,17.70
2016,06,28,10,47,17.70
2016,06,28,10,48,17.70
2016,06,28,10,49,17.70
2016,06,28,10,50,17.80
2016,06,28,10,51,17.80
2016,06,28,10,52,17.80
2016,06,28,10,53,17.90
2016,06,28,10,54,17.90
2016,06,28,10,55,17.90
2016,06,28,10,56,18.00
2016,06,28,10,57,18.00
2016,06,28,10,58,18.10
2016,06,28,10,59,18.10
2016,06,28,11,00,18.20
2016,06,28,11,01,18.20
2016,06,28,11,02,18.30
2016,06,28,11,03,18.30
2016,06,28,11,04,18.30
2016,06,28,11,05,18.30
2016,06,28,11,06,18.30
2016,06,28,11,07,18.30
2016,06,28,11,08,18.30
2016,06,28,11,09,18.30
2016,06,28,11,10,18.30
2016,06,28,11,11,18.40
2016,06,28,11,12,18.40
2016,06,28,11,13,18.50
2016,06,28,11,14,18.50
2016,06,28,11,15,18.60
2016,06,28,11,16,18.60
2016,06,28,11,17,18.70
2016,06,28,11,18,18.80
2016,06,28,11,19,18.80
2016,06,28,11,20,18.90
2016,06,28,11,21,18.90
2016,06,28,11,22,18.90
2016,06,28,11,23,19.00
2016,06,28,11,24,19.00
2016,06,28,11,25,19.10
2016,06,28,11,26,19.10
2016,06,28,11,27,19.20
2016,06,28,11,28,19.20
2016,06,28,11,29,19.20
2016,06,28,11,30,19.10
2016,06,28,11,31,19.10
2016,06,28,11,32,19.10
2016,06,28,11,33,19.10
2016,06,28,11,34,19.00
2016,06,28,11,35,18.90
2016,06,28,11,36,18.90
2016,06,28,11,37,19.00
2016,06,28,11,38,19.00
2016,06,28,11,39,19.00
2016,06,28,11,40,19.00
2016,06,28,11,41,18.90
2016,06,28,11,42,18.90
2016,06,28,11,43,18.80
2016,06,28,11,44,18.80
2016,06,28,11,45,18.70
2016,06,28,11,46,18.50
2016,06,28,11,47,18.40
2016,06,28,11,48,18.30
2016,06,28,11,49,18.30
2016,06,28,11,50,18.20
2016,06,28,11,51,18.10
2016,06,28,11,52,18.00
2016,06,28,11,53,17.90
2016,06,28,11,54,17.80
2016,06,28,11,55,17.80
2016,06,28,11,56,17.70
2016,06,28,11,57,17.70
2016,06,28,11,58,17.70
2016,06,28,11,59,17.70
2016,06,28,12,00,17.70
2016,06,28,12,01,17.70
2016,06,28,12,02,17.70
2016,06,28,12,03,17.70
2016,06,28,12,04,17.80
2016,06,28,12,05,17.80
2016,06,28,12,06,17.90
2016,06,28,12,07,17.90
2016,06,28,12,08,18.00
2016,06,28,12,09,18.00
2016,06,28,12,10,18.10
2016,06,28,12,11,18.10
2016,06,28,12,12,18.20
2016,06,28,12,13,18.30
2016,06,28,12,14,18.40
2016,06,28,12,15,18.50
2016,06,28,12,16,18.60
2016,06,28,12,17,18.70
2016,06,28,12,18,18.80
2016,06,28,12,19,18.80
2016,06,28,12,20,18.80
2016,06,28,12,21,18.80
2016,06,28,12,22,18.90
2016,06,28,12,23,18.90
2016,06,28,12,24,19.00
2016,06,28,12,25,19.00
2016,06,28,12,26,19.00
2016,06,28,12,27,19.00
2016,06,28,12,28,19.00
2016,06,28,12,29,19.00
2016,06,28,12,30,19.10
2016,06,28,12,31,19.10
2016,06,28,12,32,19.20
2016,06,28,12,33,19.20
2016,06,28,12,34,19.20
2016,06,28,12,35,19.20
2016,06,28,12,36,19.20
2016,06,28,12,37,19.20
2016,06,28,12,38,19.20
2016,06,28,12,39,19.20
2016,06,28,12,40,19.20
2016,06,28,12,41,19.20
2016,06,28,12,42,19.30
2016,06,28,12,43,19.40
2016,06,28,12,44,19.50
2016,06,28,12,45,19.60
2016,06,28,12,46,19.80
2016,06,28,12,47,19.90
2016,06,28,12,48,19.90
2016,06,28,12,49,20.00
2016,06,28,12,50,20.10
2016,06,28,12,51,20.10
2016,06,28,12,52,20.10
2016,06,28,12,53,20.10
2016,06,28,12,54,20.10
2016,06,28,12,55,20.00
2016,06,28,12,56,20.00
2016,06,28,12,57,19.90
2016,06,28,12,58,19.90
2016,06,28,12,59,19.80
2016,06,28,13,00,19.80
2016,06,28,13,01,19.80
2016,06,28,13,02,19.80
2016,06,28,13,03,19.80
2016,06,28,13,04,19.90
2016,06,28,13,05,19.90
2016,06,28,13,06,20.00
2016,06,28,13,07,20.10
2016,06,28,13,08,20.20
2016,06,28,13,09,20.20
2016,06,28,13,10,20.30
2016,06,28,13,11,20.40
2016,06,28,13,12,20.50
2016,06,28,13,13,20.60
2016,06,28,13,14,20.60
2016,06,28,13,15,20.60
2016,06,28,13,16,20.70
2016,06,28,13,17,20.70
2016,06,28,13,18,20.70
2016,06,28,13,19,20.70
2016,06,28,13,20,20.70
2016,06,28,13,21,20.70
2016,06,28,13,22,20.80
2016,06,28,13,23,20.80
2016,06,28,13,24,20.80
2016,06,28,13,25,20.90
2016,06,28,13,26,20.90
2016,06,28,13,27,20.90
2016,06,28,13,28,21.00
2016,06,28,13,29,21.10
2016,06,28,13,30,21.20
2016,06,28,13,31,21.30
2016,06,28,13,32,21.50
2016,06,28,13,33,21.60
2016,06,28,13,34,21.70
2016,06,28,13,35,21.80
2016,06,28,13,36,21.80
2016,06,28,13,37,21.80
2016,06,28,13,38,21.80
2016,06,28,13,39,21.80
2016,06,28,13,40,21.80
2016,06,28,13,41,21.80
2016,06,28,13,42,21.80
2016,06,28,13,43,21.90
2016,06,28,13,44,21.90
2016,06,28,13,45,21.90
2016,06,28,13,46,22.00
2016,06,28,13,47,22.00
2016,06,28,13,48,22.00
2016,06,28,13,49,21.90
2016,06,28,13,50,21.90
2016,06,28,13,51,22.00
2016,06,28,13,52,22.00
2016,06,28,13,53,22.10
2016,06,28,13,54,22.20
2016,06,28,13,55,22.30
2016,06,28,13,56,22.40
2016,06,28,13,57,22.50
2016,06,28,13,58,22.60
2016,06,28,13,59,22.70
2016,06,28,14,00,22.80
2016,06,28,14,01,22.90
2016,06,28,14,02,23.00
2016,06,28,14,03,23.10
2016,06,28,14,04,23.20
2016,06,28,14,05,23.20
2016,06,28,14,06,23.20
2016,06,28,14,07,23.20
2016,06,28,14,08,23.20
2016,06,28,14,09,23.20
2016,06,28,14,10,23.20
2016,06,28,14,11,23.20
2016,06,28,14,12,23.20
2016,06,28,14,13,23.20
2016,06,28,14,14,23.30
2016,06,28,14,15,23.30
2016,06,28,14,16,23.30
2016,06,28,14,17,23.40
2016,06,28,14,18,23.50
2016,06,28,14,19,23.60
2016,06,28,14,20,23.70
2016,06,28,14,21,23.70
2016,06,28,14,22,23.70
2016,06,28,14,23,23.70
2016,06,28,14,24,23.60
2016,06,28,14,25,23.50
2016,06,28,14,26,23.40
2016,06,28,14,27,23.40
2016,06,28,14,28,23.40
2016,06,28,14,29,23.40
2016,06,28,14,30,23.40
2016,06,28,14,31,23.40
2016,06,28,14,32,23.40
2016,06,28,14,33,23.40
2016,06,28,14,34,23.40
2016,06,28,14,35,23.40
2016,06,28,14,36,23.40
2016,06,28,14,37,23.40
2016,06,28,14,38,23.40
2016,06,28,14,39,23.50
2016,06,28,14,40,23.60
2016,06,28,14,41,23.70
2016,06,28,14,42,23.80
2016,06,28,14,43,23.90
2016,06,28,14,44,24.00
2016,06,28,14,45,23.90
2016,06,28,14,46,23.90
2016,06,28,14,47,23.80
2016,06,28,14,48,23.80
2016,06,28,14,49,23.70
2016,06,28,14,50,23.70
2016,06,28,14,51,23.70
2016,06,28,14,52,23.70
2016,06,28,14,53,23.70
2016,06,28,14,54,23.70
2016,06,28,14,55,23.70
2016,06,28,14,56,23.70
2016,06,28,14,57,23.70
2016,06,28,14,58,23.80
2016,06,28,14,59,23.80
2016,06,28,15,00,23.80
2016,06,28,15,01,23.90
2016,06,28,15,02,23.90
2016,06,28,15,03,23.90
2016,06,28,15,04,23.90
2016,06,28,15,05,23.90
2016,06,28,15,06,23.90
2016,06,28,15,07,24.00
2016,06,28,15,08,24.00
2016,06,28,15,09,24.00
2016,06,28,15,10,24.10
2016,06,28,15,11,24.10
2016,06,28,15,12,24.00
2016,06,28,15,13,24.00
2016,06,28,15,14,24.00
2016,06,28,15,15,24.00
2016,06,28,15,16,24.00
2016,06,28,15,17,24.00
2016,06,28,15,18,23.90
2016,06,28,15,19,23.90
2016,06,28,15,20,23.90
2016,06,28,15,21,23.90
2016,06,28,15,22,23.90
2016,06,28,15,23,23.90
2016,06,28,15,24,23.90
2016,06,28,15,25,23.90
2016,06,28,15,26,23.90
2016,06,28,15,27,23.90
2016,06,28,15,28,23.90
2016,06,28,15,29,23.90
2016,06,28,15,30,24.00
2016,06,28,15,31,24.00
2016,06,28,15,32,24.10
2016,06,28,15,33,24.10
2016,06,28,15,34,24.10
2016,06,28,15,35,24.10
2016,06,28,15,36,24.10
2016,06,28,15,37,24.10
2016,06,28,15,38,24.10
2016,06,28,15,39,24.10
2016,06,28,15,40,24.10
2016,06,28,15,41,24.10
2016,06,28,15,42,24.00
2016,06,28,15,43,24.00
2016,06,28,15,44,23.90
2016,06,28,15,45,23.90
2016,06,28,15,46,23.90
2016,06,28,15,47,23.80
2016,06,28,15,48,23.80
2016,06,28,15,49,23.80
2016,06,28,15,50,23.80
2016,06,28,15,51,23.80
2016,06,28,15,52,23.90
2016,06,28,15,53,23.90
2016,06,28,15,54,23.90
2016,06,28,15,55,23.90
2016,06,28,15,56,24.00
2016,06,28,15,57,24.00
2016,06,28,15,58,24.00
2016,06,28,15,59,24.00
2016,06,28,16,00,24.00
2016,06,28,16,01,24.00
2016,06,28,16,02,24.00
2016,06,28,16,03,24.00
2016,06,28,16,04,24.00
2016,06,28,16,05,24.10
2016,06,28,16,06,24.00
2016,06,28,16,07,24.00
2016,06,28,16,08,24.00
2016,06,28,16,09,24.00
2016,06,28,16,10,24.00
2016,06,28,16,11,24.10
2016,06,28,16,12,24.10
2016,06,28,16,13,24.10
2016,06,28,16,14,24.20
2016,06,28,16,15,24.20
2016,06,28,16,16,24.20
2016,06,28,16,17,24.20
2016,06,28,16,18,24.20
2016,06,28,16,19,24.20
2016,06,28,16,20,24.20
2016,06,28,16,21,24.20
2016,06,28,16,22,24.20
2016,06,28,16,23,24.20
2016,06,28,16,24,24.10
2016,06,28,16,25,24.10
2016,06,28,16,26,24.10
2016,06,28,16,27,24.10
2016,06,28,16,28,24.00
2016,06,28,16,29,24.00
2016,06,28,16,30,24.00
2016,06,28,16,31,23.90
2016,06,28,16,32,23.90
2016,06,28,16,33,23.90
2016,06,28,16,34,23.90
2016,06,28,16,35,24.00
2016,06,28,16,36,23.90
2016,06,28,16,37,23.90
2016,06,28,16,38,23.90
2016,06,28,16,39,23.80
2016,06,28,16,40,23.80
2016,06,28,16,41,23.80
2016,06,28,16,42,23.80
2016,06,28,16,43,23.80
2016,06,28,16,44,23.80
2016,06,28,16,45,23.80
2016,06,28,16,46,23.80
2016,06,28,16,47,23.90
2016,06,28,16,48,23.90
2016,06,28,16,49,24.00
2016,06,28,16,50,24.10
2016,06,28,16,51,24.20
2016,06,28,16,52,24.20
2016,06,28,16,53,24.20
2016,06,28,16,54,24.20
2016,06,28,16,55,24.20
2016,06,28,16,56,24.20
2016,06,28,16,57,24.20
2016,06,28,16,58,24.20
2016,06,28,16,59,24.20
2016,06,28,17,00,24.30
2016,06,28,17,01,24.30
2016,06,28,17,02,24.30
2016,06,28,17,03,24.30
2016,06,28,17,04,24.30
2016,06,28,17,05,24.30
2016,06,28,17,06,24.30
2016,06,28,17,07,24.30
2016,06,28,17,08,24.30
2016,06,28,17,09,24.20
2016,06,28,17,10,24.20
2016,06,28,17,11,24.20
2016,06,28,17,12,24.20
2016,06,28,17,13,24.20
2016,06,28,17,14,24.30
2016,06,28,17,15,24.30
2016,06,28,17,16,24.40
2016,06,28,17,17,24.50
2016,06,28,17,18,24.50
2016,06,28,17,19,24.60